Location: Crescent
(42.8242°N, 73.7329°W)
Time: 21:38:55
(UTC+00:00)

Vanguard 2 Rocket - Pass Details

Date: 16 February 2026
Orbit: 553 x 3287 km, 32.9° (Epoch: 7 March)

Event Time Altitude Azimuth Distance (km) Brightness Sun altitude
Rises 22:10:44 0° 271° (W) 6,085 12.7 2.2°
Reaches altitude 10° 22:15:47 10° 265° (W) 4,607 12.4 1.3°
Maximum altitude 22:25:50 34° 206° (SSW) 2,159 9.4 -0.5°
Drops below altitude 10° 22:32:02 10° 143° (SE) 2,812 9.2 -1.6°
Sets 22:34:23 0° 133° (SE) 3,501 9.6 -2.0°
